This is the latest recevied weather packets stored in our database for station/object NZ3C. If no packets are shown the sender has not sent any weather packets the latest 10 day(s).
| Time | Temp. | Humidity | Pressure | Rain* | Wind** | Luminosity | Snow |
|---|---|---|---|---|---|---|---|
| 1777917576 | 25.56° C | 30% | 1017.1 hPa | 0 mm | - | 866 W/m² | - |
| 1777917272 | 25.56° C | 31% | 1017.1 hPa | 0 mm | - | 867 W/m² | - |
| 1777916970 | 26.11° C | 30% | 1017.2 hPa | 0 mm | - | 874 W/m² | - |
| 1777916667 | 26.11° C | 32% | 1017.3 hPa | 0 mm | - | 879 W/m² | - |
| 1777916365 | 25.56° C | 31% | 1017.3 hPa | 0 mm | - | 878 W/m² | - |
| 1777916061 | 25.56° C | 29% | 1017.3 hPa | 0 mm | - | 886 W/m² | - |
| 1777915759 | 25.56° C | 30% | 1017.3 hPa | 0 mm | - | 886 W/m² | - |
| 1777915454 | 25° C | 31% | 1017.5 hPa | 0 mm | - | 890 W/m² | - |
| 1777915151 | 25.56° C | 30% | 1017.4 hPa | 0 mm | - | 886 W/m² | - |
| 1777914848 | 25.56° C | 34% | 1017.5 hPa | 0 mm | - | 888 W/m² | - |
| 1777914545 | 25.56° C | 34% | 1017.6 hPa | 0 mm | - | 882 W/m² | - |
| 1777914241 | 25.56° C | 31% | 1017.5 hPa | 0 mm | - | 882 W/m² | - |
| 1777913938 | 25.56° C | 33% | 1017.8 hPa | 0 mm | - | 877 W/m² | - |
| 1777913635 | 24.44° C | 35% | 1017.6 hPa | 0 mm | - | 883 W/m² | - |
| 1777913331 | 25° C | 36% | 1017.6 hPa | 0 mm | - | 880 W/m² | - |
| 1777913029 | 25° C | 37% | 1017.9 hPa | 0 mm | - | 875 W/m² | - |
| 1777912724 | 25° C | 35% | 1017.6 hPa | 0 mm | - | 875 W/m² | - |
| 1777912420 | 24.44° C | 36% | 1017.9 hPa | 0 mm | - | 872 W/m² | - |
| 1777912116 | 24.44° C | 35% | 1017.9 hPa | 0 mm | - | 865 W/m² | - |
| 1777911812 | 25° C | 34% | 1018 hPa | 0 mm | - | 865 W/m² | - |
| 1777911509 | 25° C | 36% | 1017.7 hPa | 0 mm | - | 860 W/m² | - |
| 1777911206 | 24.44° C | 41% | 1018 hPa | 0 mm | - | 858 W/m² | - |
| 1777910903 | 24.44° C | 38% | 1018 hPa | 0 mm | - | 854 W/m² | - |
| 1777910600 | 24.44° C | 37% | 1017.9 hPa | 0 mm | - | 843 W/m² | - |
| 1777910297 | 23.89° C | 38% | 1018.2 hPa | 0 mm | - | 842 W/m² | - |
* Rain latest hour (hover to see other rain measurements)
** Current wind speed in m/s (hover to see current wind gust speed)